Погода в Долиновке

Россия / Камчатский край     55°07′16″N   159°04′03″E
темп.,
°C
ветер,
м/с
пор.,
м/с
влажн.,
%
обл.,
%
осадки,
мм/ч
давл.,
гПа
погр.,
м
5 июля, вт
вт500:00+12с2481100 0.1 100673
03:00+11с2494100 0.1 1007108
06:00+11с0096100 0.5 100725
09:00+11зсз1195100 1.6 100993
12:00+18юз2259100 1.6 10071089
15:00+19ююз226199 0.9 10071160
18:00+17ююз347525 1.9 1007549
21:00+15юз247850 0.3 1009165
6 июля, ср
ср600:00+13ююз2482100 0.3 1010121
03:00+12ююз237959 0.0 101190
06:00+12ююз137995 0.0 1012102
09:00+16ююз236357 0.0 1012537
12:00+21ююз235070 0.0 10111295
15:00+23ююз344593 0.0 10101625
18:00+22ю2453100 0.0 1010653
21:00+15сз2388100 0.4 101262
7 июля, чт
чт700:00+14юз2297100 0.8 101244
03:00+13ю119747 0.0 101117
06:00+12ююз2397100 0.0 101267
09:00+16ююз2379100 0.0 1011331
12:00+23юз2246100 0.0 1010999
15:00+26ююз3343100 0.0 10081222
18:00+26ю23475 0.0 1007922
21:00+22ююв12725 0.0 100716
8 июля, пт
пт800:00+18юз22836 0.0 100815
03:00+15ююз22885 0.0 100832
06:00+15ююз23855 0.0 100974
09:00+21ююз2260100 0.0 1008363
12:00+26ююз224567 0.0 1007767
15:00+30ююз22395 0.0 10061129
18:00+30ю214481 0.0 1006937
21:00+24ююз2273100 0.0 100617
9 июля, сб
сб900:00+20ссв0082100 0.0 100811
03:00+18юз1194100 0.0 100911
06:00+18ююз119499 0.0 101031
09:00+24ююз11675 0.0 1010411
12:00+29ююз22520 0.0 1010945
15:00+32юз33410 0.0 10091400
18:00+32ююз33410 0.0 10091182
21:00+26ю11740 0.0 101014